GAF1501 SBPA-SBJV

Flight info

Callsign GAF1501
Flight time 0h 52m
Altitude 35000
Route MDI
Aircraft A319/M-SDE3FGHIRWY/LB1

Departure

Time 2026-05-06 22:52
Airport Porto Alegre-Salgado Filho International Airport (SBPA)

Arrival

Time 2026-05-06 23:45
Airport Lauro Carneiro de Loyola Airport (SBJV)
Time Latitude Longitude Altitude Speed Heading
2026-05-06 22:45 -29.99170 -51.17643 20 ft 0 kts 271°
2026-05-06 22:47 -29.99170 -51.17644 20 ft 1 kts 271°
2026-05-06 22:47 -29.99171 -51.17667 20 ft 4 kts 257°
2026-05-06 22:47 -29.99197 -51.17695 20 ft 6 kts 199°
2026-05-06 22:48 -29.99249 -51.17700 20 ft 9 kts 185°
2026-05-06 22:48 -29.99286 -51.17755 20 ft 11 kts 268°
2026-05-06 22:48 -29.99282 -51.17848 20 ft 13 kts 269°
2026-05-06 22:48 -29.99284 -51.17916 20 ft 11 kts 270°
2026-05-06 22:49 -29.99287 -51.17986 20 ft 0 kts 264°
2026-05-06 22:49 -29.99293 -51.18026 21 ft 8 kts 255°
2026-05-06 22:49 -29.99309 -51.18076 21 ft 12 kts 247°
2026-05-06 22:49 -29.99328 -51.18131 20 ft 0 kts 249°
2026-05-06 22:50 -29.99330 -51.18137 20 ft 0 kts 249°
2026-05-06 22:50 -29.99334 -51.18149 20 ft 3 kts 248°
2026-05-06 22:50 -29.99345 -51.18181 20 ft 5 kts 247°
2026-05-06 22:50 -29.99365 -51.18226 20 ft 7 kts 233°
2026-05-06 22:51 -29.99409 -51.18262 20 ft 9 kts 207°
2026-05-06 22:51 -29.99444 -51.18223 21 ft 8 kts 90°
2026-05-06 22:51 -29.99440 -51.18151 21 ft 10 kts 90°
2026-05-06 22:51 -29.99444 -51.18016 21 ft 36 kts 92°
2026-05-06 22:52 -29.99455 -51.17488 20 ft 96 kts 91°
2026-05-06 22:52 -29.99476 -51.16501 24 ft 149 kts 91°
2026-05-06 22:52 -29.99499 -51.15288 567 ft 150 kts 91°
2026-05-06 22:52 -29.99515 -51.14082 1069 ft 155 kts 90°
2026-05-06 22:53 -29.99534 -51.12826 1738 ft 157 kts 89°
2026-05-06 22:53 -29.99558 -51.11566 2275 ft 163 kts 89°
2026-05-06 22:53 -29.99585 -51.10171 2598 ft 185 kts 89°
2026-05-06 22:53 -29.99612 -51.08587 2917 ft 210 kts 89°
2026-05-06 22:54 -29.99643 -51.06803 3368 ft 235 kts 89°
2026-05-06 22:54 -29.99678 -51.04821 3889 ft 259 kts 89°
2026-05-06 22:54 -29.99717 -51.02661 4626 ft 275 kts 89°
2026-05-06 22:54 -29.99759 -51.00421 5583 ft 283 kts 89°
2026-05-06 22:55 -29.99801 -50.98132 6551 ft 289 kts 89°
2026-05-06 22:55 -29.99841 -50.95792 7465 ft 294 kts 90°
2026-05-06 22:55 -29.99611 -50.93443 8333 ft 299 kts 68°
2026-05-06 22:55 -29.98481 -50.91457 9192 ft 298 kts 38°
2026-05-06 22:56 -29.96684 -50.90312 9810 ft 296 kts 11°
2026-05-06 22:56 -29.94688 -50.89997 9970 ft 294 kts
2026-05-06 22:56 -29.92615 -50.89391 10014 ft 323 kts 19°
2026-05-06 22:56 -29.90619 -50.88096 10020 ft 333 kts 29°
2026-05-06 22:57 -29.88666 -50.86647 10023 ft 334 kts 30°
2026-05-06 22:57 -29.86728 -50.85157 10026 ft 335 kts 31°
2026-05-06 22:57 -29.84798 -50.83652 10026 ft 335 kts 31°
2026-05-06 22:57 -29.82868 -50.82146 10032 ft 335 kts 31°
2026-05-06 22:58 -29.80891 -50.80675 10423 ft 341 kts 28°
2026-05-06 22:58 -29.78861 -50.79263 11259 ft 341 kts 28°
2026-05-06 22:58 -29.76806 -50.77876 12038 ft 344 kts 27°
2026-05-06 22:58 -29.74722 -50.76483 12796 ft 348 kts 27°
2026-05-06 22:59 -29.72613 -50.75069 13545 ft 353 kts 28°
2026-05-06 22:59 -29.70483 -50.73636 14225 ft 357 kts 28°
2026-05-06 22:59 -29.68329 -50.72179 14868 ft 361 kts 28°
2026-05-06 22:59 -29.66153 -50.70697 15512 ft 366 kts 28°
2026-05-06 23:00 -29.63947 -50.69188 16164 ft 370 kts 28°
2026-05-06 23:00 -29.61720 -50.67666 16824 ft 374 kts 27°
2026-05-06 23:00 -29.59466 -50.66129 17484 ft 378 kts 27°
2026-05-06 23:00 -29.57187 -50.64577 18138 ft 383 kts 27°
2026-05-06 23:01 -29.54912 -50.63031 18711 ft 387 kts 27°
2026-05-06 23:01 -29.52583 -50.61448 19270 ft 392 kts 27°
2026-05-06 23:01 -29.50224 -50.59843 19847 ft 396 kts 27°
2026-05-06 23:01 -29.47841 -50.58222 20431 ft 400 kts 27°
2026-05-06 23:02 -29.45426 -50.56581 21006 ft 405 kts 27°
2026-05-06 23:02 -29.42992 -50.54928 21556 ft 409 kts 26°
2026-05-06 23:02 -29.40526 -50.53257 22116 ft 413 kts 26°
2026-05-06 23:02 -29.38037 -50.51575 22653 ft 418 kts 26°
2026-05-06 23:03 -29.35519 -50.49872 23208 ft 422 kts 26°
2026-05-06 23:03 -29.32975 -50.48151 23746 ft 427 kts 26°
2026-05-06 23:03 -29.30408 -50.46413 24207 ft 431 kts 26°
2026-05-06 23:03 -29.27818 -50.44659 24681 ft 434 kts 26°
2026-05-06 23:04 -29.25205 -50.42894 25143 ft 438 kts 26°
2026-05-06 23:04 -29.22570 -50.41118 25591 ft 441 kts 26°
2026-05-06 23:04 -29.19913 -50.39330 26042 ft 444 kts 26°
2026-05-06 23:04 -29.17234 -50.37522 26476 ft 448 kts 26°
2026-05-06 23:05 -29.14577 -50.35728 26899 ft 451 kts 26°
2026-05-06 23:05 -29.11865 -50.33897 27318 ft 454 kts 26°
2026-05-06 23:05 -29.09131 -50.32049 27738 ft 458 kts 26°
2026-05-06 23:05 -29.06377 -50.30189 28150 ft 461 kts 26°
2026-05-06 23:06 -29.03602 -50.28322 28578 ft 464 kts 26°
2026-05-06 23:06 -29.00804 -50.26445 28996 ft 468 kts 26°
2026-05-06 23:06 -28.97975 -50.24553 29427 ft 471 kts 25°
2026-05-06 23:06 -28.95131 -50.22654 29845 ft 475 kts 25°
2026-05-06 23:07 -28.92306 -50.20767 30237 ft 478 kts 25°
2026-05-06 23:07 -28.89424 -50.18841 30587 ft 481 kts 25°
2026-05-06 23:07 -28.86525 -50.16897 30925 ft 484 kts 26°
2026-05-06 23:07 -28.83615 -50.14939 31244 ft 487 kts 26°
2026-05-06 23:08 -28.80687 -50.12972 31567 ft 489 kts 26°
2026-05-06 23:08 -28.77742 -50.10997 31884 ft 492 kts 25°
2026-05-06 23:08 -28.74793 -50.09024 32317 ft 491 kts 25°
2026-05-06 23:08 -28.71842 -50.07052 32774 ft 491 kts 25°
2026-05-06 23:09 -28.68895 -50.05087 33224 ft 491 kts 25°
2026-05-06 23:09 -28.65949 -50.03124 33679 ft 490 kts 25°
2026-05-06 23:09 -28.63000 -50.01162 34144 ft 490 kts 25°
2026-05-06 23:09 -28.60050 -49.99203 34552 ft 490 kts 25°
2026-05-06 23:10 -28.57144 -49.97273 34929 ft 490 kts 25°
2026-05-06 23:10 -28.54159 -49.95290 35112 ft 491 kts 25°
2026-05-06 23:10 -28.51232 -49.93344 35155 ft 482 kts 25°
2026-05-06 23:11 -28.45537 -49.89557 35160 ft 474 kts 25°
2026-05-06 23:11 -28.39850 -49.85776 35166 ft 474 kts 25°
2026-05-06 23:12 -28.34148 -49.82008 35172 ft 474 kts 25°
2026-05-06 23:12 -28.28447 -49.78248 35173 ft 474 kts 25°
2026-05-06 23:13 -28.22738 -49.74472 35170 ft 474 kts 26°
2026-05-06 23:13 -28.17038 -49.70704 35169 ft 475 kts 26°
2026-05-06 23:14 -28.11325 -49.66943 35161 ft 475 kts 25°
2026-05-06 23:14 -28.05606 -49.63188 35157 ft 475 kts 26°
2026-05-06 23:15 -27.99928 -49.59450 35156 ft 475 kts 26°
2026-05-06 23:15 -27.94206 -49.55690 35158 ft 476 kts 26°
2026-05-06 23:16 -27.88474 -49.51945 35154 ft 476 kts 26°
2026-05-06 23:16 -27.82740 -49.48195 35151 ft 476 kts 26°
2026-05-06 23:17 -27.76998 -49.44439 35146 ft 476 kts 26°
2026-05-06 23:17 -27.71268 -49.40689 35143 ft 476 kts 26°
2026-05-06 23:18 -27.65531 -49.36945 35145 ft 476 kts 26°
2026-05-06 23:18 -27.59787 -49.33202 35142 ft 476 kts 26°
2026-05-06 23:19 -27.54086 -49.29489 35134 ft 476 kts 26°
2026-05-06 23:19 -27.48340 -49.25756 35139 ft 477 kts 26°
2026-05-06 23:20 -27.42590 -49.22024 34905 ft 477 kts 26°
2026-05-06 23:20 -27.39728 -49.20165 34545 ft 474 kts 26°
2026-05-06 23:20 -27.36865 -49.18306 33973 ft 475 kts 26°
2026-05-06 23:20 -27.34003 -49.16455 33425 ft 473 kts 26°
2026-05-06 23:21 -27.31149 -49.14610 32896 ft 471 kts 26°
2026-05-06 23:21 -27.28313 -49.12778 32383 ft 468 kts 26°
2026-05-06 23:21 -27.25488 -49.10950 31866 ft 467 kts 26°
2026-05-06 23:21 -27.22680 -49.09131 31347 ft 465 kts 26°
2026-05-06 23:22 -27.19886 -49.07326 30850 ft 463 kts 26°
2026-05-06 23:22 -27.17133 -49.05548 30359 ft 461 kts 26°
2026-05-06 23:22 -27.14501 -49.03849 29854 ft 458 kts 26°
2026-05-06 23:22 -27.11718 -49.02055 29367 ft 453 kts 26°
2026-05-06 23:23 -27.09026 -49.00319 28913 ft 450 kts 26°
2026-05-06 23:23 -27.06317 -48.98574 28461 ft 446 kts 26°
2026-05-06 23:23 -27.03639 -48.96850 28012 ft 442 kts 26°
2026-05-06 23:23 -27.00986 -48.95146 27565 ft 438 kts 27°
2026-05-06 23:24 -26.98353 -48.93454 27114 ft 435 kts 27°
2026-05-06 23:24 -26.95734 -48.91771 26669 ft 432 kts 27°
2026-05-06 23:24 -26.93133 -48.90100 26211 ft 430 kts 27°
2026-05-06 23:24 -26.90543 -48.88436 25755 ft 428 kts 27°
2026-05-06 23:25 -26.87965 -48.86780 25285 ft 426 kts 27°
2026-05-06 23:25 -26.85393 -48.85131 24808 ft 425 kts 27°
2026-05-06 23:25 -26.82828 -48.83485 24339 ft 424 kts 27°
2026-05-06 23:25 -26.80312 -48.81872 23914 ft 421 kts 27°
2026-05-06 23:26 -26.77789 -48.80255 23580 ft 415 kts 27°
2026-05-06 23:26 -26.75287 -48.78656 23050 ft 412 kts 27°
2026-05-06 23:26 -26.72803 -48.77071 22553 ft 409 kts 27°
2026-05-06 23:26 -26.70345 -48.75506 22066 ft 405 kts 28°
2026-05-06 23:27 -26.67901 -48.73948 21582 ft 402 kts 28°
2026-05-06 23:27 -26.65488 -48.72407 21099 ft 398 kts 28°
2026-05-06 23:27 -26.63096 -48.70882 20621 ft 394 kts 28°
2026-05-06 23:27 -26.61112 -48.69619 20218 ft 391 kts 28°
2026-05-06 23:28 -26.58757 -48.68117 19779 ft 387 kts 28°
2026-05-06 23:28 -26.56441 -48.66636 19361 ft 381 kts 28°
2026-05-06 23:28 -26.54147 -48.65171 18921 ft 377 kts 28°
2026-05-06 23:28 -26.51876 -48.63722 18457 ft 374 kts 28°
2026-05-06 23:29 -26.49630 -48.62289 17950 ft 370 kts 28°
2026-05-06 23:29 -26.47405 -48.60871 17433 ft 367 kts 28°
2026-05-06 23:29 -26.45200 -48.59468 16934 ft 363 kts 28°
2026-05-06 23:29 -26.43022 -48.58082 16514 ft 357 kts 28°
2026-05-06 23:30 -26.40796 -48.56887 15966 ft 354 kts 17°
2026-05-06 23:30 -26.38433 -48.56357 15549 ft 348 kts
2026-05-06 23:30 -26.36038 -48.56474 15097 ft 343 kts 351°
2026-05-06 23:30 -26.33688 -48.56844 14678 ft 338 kts 351°
2026-05-06 23:31 -26.31370 -48.57201 14281 ft 334 kts 351°
2026-05-06 23:31 -26.29075 -48.57548 13873 ft 330 kts 351°
2026-05-06 23:31 -26.26808 -48.57885 13425 ft 326 kts 352°
2026-05-06 23:31 -26.24575 -48.58219 13036 ft 322 kts 352°
2026-05-06 23:32 -26.22363 -48.58555 12634 ft 318 kts 352°
2026-05-06 23:32 -26.20215 -48.58881 12262 ft 314 kts 352°
2026-05-06 23:32 -26.18064 -48.59205 11872 ft 311 kts 352°
2026-05-06 23:32 -26.15931 -48.59529 11496 ft 308 kts 352°
2026-05-06 23:33 -26.13817 -48.59849 11096 ft 306 kts 352°
2026-05-06 23:33 -26.11710 -48.60165 10656 ft 305 kts 352°
2026-05-06 23:33 -26.09613 -48.60483 10268 ft 303 kts 352°
2026-05-06 23:33 -26.07531 -48.60800 9881 ft 301 kts 352°
2026-05-06 23:34 -26.05466 -48.61112 9487 ft 298 kts 352°
2026-05-06 23:34 -26.03430 -48.61417 9116 ft 290 kts 352°
2026-05-06 23:34 -26.02120 -48.61612 8866 ft 282 kts 352°
2026-05-06 23:34 -26.00212 -48.61899 8524 ft 272 kts 352°
2026-05-06 23:35 -25.98367 -48.62178 8184 ft 262 kts 352°
2026-05-06 23:35 -25.96617 -48.62605 7855 ft 253 kts 339°
2026-05-06 23:35 -25.95095 -48.63491 7539 ft 243 kts 324°
2026-05-06 23:35 -25.93865 -48.64739 7201 ft 239 kts 310°
2026-05-06 23:36 -25.92939 -48.66273 6857 ft 238 kts 301°
2026-05-06 23:36 -25.92097 -48.67849 6519 ft 237 kts 302°
2026-05-06 23:36 -25.91348 -48.69474 6163 ft 236 kts 288°
2026-05-06 23:36 -25.91199 -48.71275 5819 ft 236 kts 264°
2026-05-06 23:37 -25.91726 -48.72962 5494 ft 235 kts 239°
2026-05-06 23:37 -25.92830 -48.74276 5189 ft 234 kts 214°
2026-05-06 23:37 -25.94218 -48.75201 4879 ft 232 kts 210°
2026-05-06 23:37 -25.95604 -48.76109 4558 ft 230 kts 211°
2026-05-06 23:38 -25.96972 -48.77012 4250 ft 228 kts 211°
2026-05-06 23:38 -25.98331 -48.77909 3941 ft 226 kts 211°
2026-05-06 23:38 -25.99678 -48.78798 3647 ft 223 kts 211°
2026-05-06 23:38 -26.00979 -48.79656 3495 ft 210 kts 211°
2026-05-06 23:39 -26.02184 -48.80451 3401 ft 192 kts 211°
2026-05-06 23:39 -26.03251 -48.81156 3324 ft 163 kts 211°
2026-05-06 23:39 -26.04173 -48.81767 3251 ft 150 kts 211°
2026-05-06 23:39 -26.05062 -48.82355 3189 ft 148 kts 211°
2026-05-06 23:40 -26.05946 -48.82939 3125 ft 147 kts 211°
2026-05-06 23:40 -26.06828 -48.83523 3058 ft 147 kts 211°
2026-05-06 23:40 -26.07710 -48.84107 2991 ft 147 kts 211°
2026-05-06 23:40 -26.08579 -48.84682 2924 ft 147 kts 211°
2026-05-06 23:41 -26.09456 -48.85263 2855 ft 147 kts 211°
2026-05-06 23:41 -26.10332 -48.85842 2783 ft 146 kts 211°
2026-05-06 23:41 -26.11215 -48.86402 2714 ft 146 kts 205°
2026-05-06 23:41 -26.12205 -48.86627 2638 ft 146 kts 179°
2026-05-06 23:42 -26.13195 -48.86442 2417 ft 143 kts 163°
2026-05-06 23:42 -26.14162 -48.86189 2214 ft 142 kts 165°
2026-05-06 23:42 -26.15123 -48.85944 2018 ft 141 kts 165°
2026-05-06 23:42 -26.16076 -48.85703 1828 ft 140 kts 166°
2026-05-06 23:43 -26.17021 -48.85461 1630 ft 139 kts 165°
2026-05-06 23:43 -26.17857 -48.84960 1435 ft 137 kts 137°
2026-05-06 23:43 -26.18542 -48.84234 1224 ft 135 kts 134°
2026-05-06 23:43 -26.19225 -48.83517 1010 ft 134 kts 135°
2026-05-06 23:44 -26.19901 -48.82806 791 ft 133 kts 135°
2026-05-06 23:44 -26.20565 -48.82108 596 ft 133 kts 136°
2026-05-06 23:44 -26.21220 -48.81385 367 ft 132 kts 132°
2026-05-06 23:44 -26.21815 -48.80604 148 ft 133 kts 128°
2026-05-06 23:45 -26.22364 -48.79851 25 ft 100 kts 128°
2026-05-06 23:45 -26.22604 -48.79513 24 ft 12 kts 130°
2026-05-06 23:45 -26.22621 -48.79489 23 ft 6 kts 129°
2026-05-06 23:45 -26.22658 -48.79440 23 ft 10 kts 129°
2026-05-06 23:46 -26.22712 -48.79367 24 ft 14 kts 130°
2026-05-06 23:46 -26.22785 -48.79268 24 ft 19 kts 129°
2026-05-06 23:46 -26.22878 -48.79157 26 ft 15 kts 113°
2026-05-06 23:46 -26.22852 -48.79166 25 ft 11 kts 304°
2026-05-06 23:47 -26.22774 -48.79279 26 ft 26 kts 309°
2026-05-06 23:47 -26.22646 -48.79459 23 ft 33 kts 308°
2026-05-06 23:47 -26.22493 -48.79672 24 ft 37 kts 308°
2026-05-06 23:47 -26.22329 -48.79899 25 ft 27 kts 309°
2026-05-06 23:48 -26.22323 -48.80015 23 ft 18 kts 221°
2026-05-06 23:48 -26.22340 -48.80104 21 ft 5 kts 283°
2026-05-06 23:48 -26.22357 -48.80124 22 ft 3 kts 153°
2026-05-06 23:48 -26.22372 -48.80093 21 ft 6 kts 118°
2026-05-06 23:49 -26.22389 -48.80042 21 ft 8 kts 116°
2026-05-06 23:49 -26.22439 -48.80048 21 ft 8 kts 237°
2026-05-06 23:49 -26.22414 -48.80060 21 ft 5 kts 43°
2026-05-06 23:49 -26.22410 -48.80056 22 ft 0 kts 42°